FW1622 Weather Reports


Display with metric or nautical units.
time (UTC)temp
F
wind
direction
speed
MPH
gust
MPH
rain 1hr
in
rain 24hr
in
rain mn
in
humidity
%
barometer
mb
20190215195416 67 161 3.0 8.0 0.00 0.00 0.00 82 1010.9
20190215194409 67 356 1.0 7.0 0.00 0.00 0.00 86 1011.2
20190215193403 67 199 2.0 6.0 0.00 0.00 0.00 87 1011.2
20190215192358 68 191 0.0 6.0 0.00 0.00 0.00 88 1011.5
20190215191351 69 192 4.0 9.0 0.00 0.00 0.00 85 1011.5
20190215190346 69 176 2.0 10.0 0.00 0.00 0.00 81 1011.9
20190215185355 68 169 3.0 9.0 0.00 0.00 0.00 78 1012.2
20190215184335 68 196 3.0 7.0 0.00 0.00 0.00 80 1012.6
20190215183329 69 188 0.0 8.0 0.00 0.00 0.00 82 1012.6
20190215182324 69 199 2.0 8.0 0.00 0.00 0.00 80 1012.9
20190215181318 70 245 2.0 8.0 0.00 0.00 0.00 77 1012.9
20190215180312 70 241 0.0 9.0 0.00 0.00 0.00 74 1012.6
20190215175308 70 175 3.0 11.0 0.00 0.00 0.00 74 1012.6
20190215174301 70 179 2.0 9.0 0.00 0.00 0.00 74 1012.9
20190215173255 70 220 2.0 9.0 0.00 0.00 0.00 75 1012.9
20190215172250 70 195 6.0 9.0 0.00 0.00 0.00 75 1013.6
20190215171244 69 171 0.0 7.0 0.00 0.00 0.00 76 1013.6
20190215170240 69 214 2.0 10.0 0.00 0.00 0.00 77 1013.9
20190215165234 68 181 1.0 7.0 0.00 0.00 0.00 77 1013.9
20190215164227 68 154 1.0 6.0 0.00 0.00 0.00 79 1013.6
20190215163221 68 168 2.0 8.0 0.00 0.00 0.00 80 1013.9
20190215162216 68 171 0.0 7.0 0.00 0.00 0.00 82 1013.6
20190215161210 68 198 1.0 10.0 0.00 0.00 0.00 83 1013.6
20190215160204 68 199 1.0 9.0 0.00 0.00 0.00 80 1013.9
20190215155213 68 179 4.0 9.0 0.00 0.00 0.00 79 1014.2
20190215154153 67 194 0.0 7.0 0.00 0.00 0.00 79 1013.9
20190215153148 67 179 0.0 6.0 0.00 0.00 0.00 80 1014.2
20190215152142 67 189 0.0 4.0 0.00 0.00 0.00 80 1014.2
20190215151137 67 182 0.0 3.0 0.00 0.00 0.00 80 1014.2
20190215150130 66 181 1.0 3.0 0.00 0.00 0.00 80 1014.2
20190215145139 66 189 3.0 4.0 0.00 0.00 0.00 81 1013.9
20190215144119 66 211 0.0 2.0 0.00 0.00 0.00 82 1014.2
20190215143114 65 195 1.0 1.0 0.00 0.00 0.00 83 1014.2
20190215142107 65 223 0.0 1.0 0.00 0.00 0.00 83 1014.2
20190215141102 65 190 0.0 3.0 0.00 0.00 0.00 84 1014.2
20190215140057 65 359 1.0 2.0 0.00 0.00 0.00 84 1013.9
20190215135100 64 202 2.0 6.0 0.00 0.00 0.00 85 1014.2
20190215134045 64 168 1.0 4.0 0.00 0.00 0.00 86 1013.6
20190215133039 64 187 2.0 3.0 0.00 0.00 0.00 86 1013.9
20190215132034 64 191 1.0 3.0 0.00 0.00 0.00 86 1013.9
20190215131028 64 209 0.0 2.0 0.00 0.00 0.00 86 1013.9
20190215130023 63 185 0.0 4.0 0.00 0.00 0.00 87 1013.9
20190215125018 63 182 0.0 1.0 0.00 0.00 0.00 87 1013.2
20190215124011 63 201 0.0 2.0 0.00 0.00 0.00 88 1013.6
20190215123005 63 205 0.0 2.0 0.00 0.00 0.00 88 1013.6
20190215122000 63 260 0.0 1.0 0.00 0.00 0.00 88 1013.6
20190215120954 62 229 0.0 2.0 0.00 0.00 0.00 88 1013.6
20190215115949 62 232 0.0 1.0 0.00 0.00 0.00 88 1013.6
20190215114946 62 151 1.0 3.0 0.00 0.00 0.00 88 1013.2
20190215113938 62 176 1.0 2.0 0.00 0.00 0.00 88 1013.6
20190215112931 62 183 0.0 3.0 0.00 0.00 0.00 88 1013.2
20190215111926 62 196 0.0 1.0 0.00 0.00 0.00 88 1013.9
20190215110920 62 190 0.0 1.0 0.00 0.00 0.00 88 1013.6
20190215105914 62 222 0.0 1.0 0.00 0.00 0.00 88 1013.6
20190215104910 62 207 0.0 2.0 0.00 0.00 0.00 88 1013.6
20190215103916 63 191 1.0 1.0 0.00 0.00 0.00 87 1013.2
20190215102857 63 194 0.0 1.0 0.00 0.00 0.00 87 1013.6
20190215101851 63 204 0.0 2.0 0.00 0.00 0.00 86 1013.6
20190215100844 63 179 1.0 1.0 0.00 0.00 0.00 86 1013.9
20190215095838 63 194 0.0 1.0 0.00 0.00 0.00 86 1013.2
20190215094846 63 198 0.0 1.0 0.00 0.00 0.00 86 1013.6
20190215093825 63 241 0.0 1.0 0.00 0.00 0.00 86 1013.6
20190215092819 63 237 0.0 1.0 0.00 0.00 0.00 86 1013.9
20190215091813 63 175 0.0 1.0 0.00 0.00 0.00 86 1013.6
20190215090806 63 258 0.0 1.0 0.00 0.00 0.00 86 1013.6
20190215085803 63 190 0.0 1.0 0.00 0.00 0.00 85 1013.6
20190215084809 63 199 0.0 1.0 0.00 0.00 0.00 85 1013.6
20190215083748 63 234 0.0 2.0 0.00 0.00 0.00 85 1013.9
20190215082743 63 228 0.0 1.0 0.00 0.00 0.00 85 1013.9
20190215081736 63 263 1.0 2.0 0.00 0.00 0.00 85 1013.9
20190215080730 63 237 1.0 2.0 0.00 0.00 0.00 84 1013.9
20190215075723 63 240 0.0 2.0 0.00 0.00 0.00 84 1013.9
20190215074719 63 194 0.0 2.0 0.00 0.00 0.00 84 1013.9
20190215073711 63 250 0.0 1.0 0.00 0.00 0.00 84 1014.2
20190215072706 63 296 0.0 2.0 0.00 0.00 0.00 84 1014.2
20190215071659 63 240 0.0 2.0 0.00 0.00 0.00 84 1013.9
20190215070653 63 233 0.0 2.0 0.00 0.00 0.00 84 1014.2
20190215065647 64 235 1.0 6.0 0.00 0.00 0.00 83 1013.6
20190215064641 64 200 0.0 7.0 0.00 0.00 0.00 83 1013.6
20190215063634 63 197 0.0 3.0 0.00 0.00 0.00 83 1013.9
20190215062628 63 196 2.0 6.0 0.00 0.00 0.00 83 1013.6
20190215061623 63 203 0.0 3.0 0.00 0.00 0.00 83 1013.9
20190215060615 63 230 1.0 3.0 0.00 0.00 0.00 83 1013.6
20190215055612 63 236 1.0 3.0 0.00 0.00 0.00 83 1013.9
20190215054605 63 246 1.0 6.0 0.00 0.00 0.00 84 1013.6
20190215053557 62 221 1.0 6.0 0.00 0.00 0.00 84 1013.6
20190215052551 62 240 1.0 4.0 0.00 0.00 0.00 84 1013.9
20190215051545 62 207 0.0 3.0 0.00 0.00 0.00 84 1014.2
20190215050538 62 191 0.0 3.0 0.00 0.00 0.00 84 1014.2
20190215045532 62 168 0.0 3.0 0.00 0.00 0.00 83 1013.9
20190215044542 62 328 1.0 3.0 0.00 0.00 0.00 83 1014.2
20190215043519 62 221 0.0 4.0 0.00 0.00 0.00 83 1014.2
20190215042518 62 175 3.0 4.0 0.00 0.00 0.00 83 1014.2
20190215041507 62 180 0.0 2.0 0.00 0.00 0.00 82 1014.2
20190215040502 62 201 0.0 3.0 0.00 0.00 0.00 82 1014.6
20190215035455 62 252 0.0 3.0 0.00 0.00 0.00 81 1014.9
20190215034502 62 187 0.0 4.0 0.00 0.00 0.00 81 1015.3
20190215033442 62 202 0.0 4.0 0.00 0.00 0.00 81 1014.9
20190215032437 62 264 1.0 3.0 0.00 0.00 0.00 80 1014.9
20190215031430 62 229 0.0 4.0 0.00 0.00 0.00 80 1014.9
20190215030424 62 196 1.0 4.0 0.00 0.00 0.00 80 1014.6
20190215025419 63 178 2.0 4.0 0.00 0.00 0.00 80 1014.9
20190215024414 63 197 1.0 3.0 0.00 0.00 0.00 79 1014.6
20190215023406 63 313 2.0 3.0 0.00 0.00 0.00 78 1014.9
20190215022401 63 191 1.0 3.0 0.00 0.00 0.00 77 1014.2
20190215021355 63 172 1.0 4.0 0.00 0.00 0.00 77 1014.6
20190215020349 64 167 2.0 4.0 0.00 0.00 0.00 77 1014.6
20190215015343 64 192 0.0 4.0 0.00 0.00 0.00 76 1014.9
20190215014338 64 184 4.0 6.0 0.00 0.00 0.00 76 1014.6
20190215013330 64 209 0.0 4.0 0.00 0.00 0.00 75 1014.6
20190215012324 64 186 0.0 3.0 0.00 0.00 0.00 75 1014.2
20190215011318 65 191 0.0 6.0 0.00 0.00 0.00 75 1014.2
20190215010312 65 195 1.0 2.0 0.00 0.00 0.00 74 1014.9
20190215005305 65 178 2.0 3.0 0.00 0.00 0.00 74 1015.3
20190215004313 66 191 1.0 3.0 0.00 0.00 0.00 73 1015.3
20190215003252 66 192 1.0 3.0 0.00 0.00 0.00 72 1015.3
20190215002246 66 162 2.0 4.0 0.00 0.00 0.00 71 1015.3
20190215001241 67 218 0.0 4.0 0.00 0.00 0.00 71 1015.3
20190215000234 67 205 0.0 3.0 0.00 0.00 0.00 69 1015.3
20190214235230 67 141 0.0 4.0 0.00 0.00 0.00 69 1015.3
20190214234236 67 181 1.0 7.0 0.00 0.00 0.00 68 1015.3
20190214233215 67 179 3.0 4.0 0.00 0.00 0.00 68 1015.3
20190214232208 68 181 0.0 10.0 0.00 0.00 0.00 67 1015.3
20190214231202 68 140 3.0 6.0 0.00 0.00 0.00 66 1015.3
20190214230157 68 202 1.0 8.0 0.00 0.00 0.00 65 1015.3
20190214225150 68 180 1.0 6.0 0.00 0.00 0.00 64 1015.3
20190214224158 68 195 4.0 10.0 0.00 0.00 0.00 64 1015.3
20190214223138 68 182 3.0 9.0 0.00 0.00 0.00 63 1015.3
20190214222131 69 192 7.0 13.0 0.00 0.00 0.00 63 1015.3
20190214221126 69 159 6.0 9.0 0.00 0.00 0.00 61 1015.6
20190214220120 69 193 6.0 9.0 0.00 0.00 0.00 61 1015.3
20190214215115 69 329 2.0 11.0 0.00 0.00 0.00 60 1015.3
20190214214108 69 196 9.0 15.0 0.00 0.00 0.00 61 1015.3
20190214213101 69 199 3.0 10.0 0.00 0.00 0.00 60 1015.3
20190214212054 69 240 4.0 11.0 0.00 0.00 0.00 60 1015.3
20190214211049 69 187 1.0 10.0 0.00 0.00 0.00 60 1015.3
20190214210042 69 164 2.0 8.0 0.00 0.00 0.00 59 1015.6
20190214205035 69 128 3.0 10.0 0.00 0.00 0.00 58 1015.6
20190214204031 70 193 1.0 9.0 0.00 0.00 0.00 58 1015.6
20190214203023 70 48 5.0 8.0 0.00 0.00 0.00 56 1015.3
20190214202017 70 201 3.0 7.0 0.00 0.00 0.00 57 1015.6
20190214201011 70 277 2.0 9.0 0.00 0.00 0.00 56 1015.6